| time (UTC) | temp C | wind direction | speed KPH | gust KPH | rain 1hr cm | rain 24hr cm | rain mn cm | humidity % | barometer mb |
| 20260505234530 | 0 | 128 | 4.8 | 9.7 | 0.03 | 0.64 | 0.61 | 94 | 1021.0 |
| 20260505233030 | 0 | 128 | 4.8 | 12.9 | 0.05 | 0.64 | 0.61 | 94 | 1020.7 |
| 20260505231532 | 0 | 115 | 1.6 | 11.3 | 0.05 | 0.64 | 0.61 | 94 | 1020.5 |
| 20260505230031 | 0 | 59 | 4.8 | 14.5 | 0.08 | 0.64 | 0.61 | 94 | 1019.8 |
| 20260505224524 | 0 | 128 | 3.2 | 12.9 | 0.10 | 0.61 | 0.58 | 94 | 1019.7 |
| 20260505223023 | 0 | 119 | 3.2 | 11.3 | 0.08 | 0.58 | 0.56 | 94 | 1019.3 |
| 20260505221521 | 0 | 131 | 4.8 | 16.1 | 0.10 | 0.58 | 0.56 | 94 | 1019.3 |
| 20260505220019 | 0 | 78 | 1.6 | 11.3 | 0.08 | 0.53 | 0.51 | 94 | 1019.4 |
| 20260505214518 | 0 | 105 | 3.2 | 12.9 | 0.08 | 0.51 | 0.48 | 94 | 1019.6 |
| 20260505213017 | 0 | 119 | 3.2 | 11.3 | 0.10 | 0.51 | 0.48 | 94 | 1019.5 |
| 20260505211516 | 0 | 116 | 6.4 | 14.5 | 0.10 | 0.48 | 0.46 | 94 | 1019.5 |
| 20260505210023 | 0 | 96 | 3.2 | 12.9 | 0.10 | 0.46 | 0.43 | 93 | 1019.6 |
| 20260505204515 | 0 | 121 | 0.0 | 11.3 | 0.10 | 0.43 | 0.41 | 93 | 1019.7 |
| 20260505203013 | 0 | 128 | 4.8 | 9.7 | 0.13 | 0.41 | 0.38 | 93 | 1019.5 |
| 20260505201510 | 0 | 116 | 1.6 | 8.0 | 0.15 | 0.38 | 0.36 | 93 | 1019.3 |
| 20260505200017 | 1 | 124 | 3.2 | 12.9 | 0.18 | 0.36 | 0.33 | 93 | 1019.5 |
| 20260505194509 | 1 | 119 | 8.0 | 14.5 | 0.15 | 0.33 | 0.30 | 93 | 1019.5 |
| 20260505193006 | 1 | 119 | 4.8 | 11.3 | 0.15 | 0.28 | 0.25 | 93 | 1019.6 |
| 20260505191506 | 1 | 115 | 1.6 | 11.3 | 0.13 | 0.23 | 0.20 | 92 | 1019.4 |
| 20260505190004 | 1 | 101 | 3.2 | 9.7 | 0.10 | 0.18 | 0.15 | 92 | 1019.3 |
| 20260505184503 | 1 | 107 | 4.8 | 12.9 | 0.10 | 0.18 | 0.15 | 91 | 1019.2 |
| 20260505183001 | 1 | 149 | 0.0 | 1.6 | 0.05 | 0.13 | 0.10 | 91 | 1019.3 |
| 20260505181601 | 1 | 149 | 0.0 | 0.0 | 0.05 | 0.10 | 0.08 | 91 | 1019.4 |
| 20260505180100 | 1 | 149 | 0.0 | 1.6 | 0.03 | 0.08 | 0.05 | 91 | 1019.3 |
| 20260505174606 | 1 | 35 | 0.0 | 3.2 | 0.03 | 0.08 | 0.05 | 91 | 1019.3 |
| 20260505173100 | 1 | 311 | 0.0 | 4.8 | 0.03 | 0.08 | 0.05 | 91 | 1019.3 |
| 20260505171604 | 0 | 42 | 0.0 | 3.2 | 0.00 | 0.05 | 0.03 | 90 | 1019.5 |
| 20260505170057 | 0 | 340 | 0.0 | 8.0 | 0.03 | 0.05 | 0.03 | 90 | 1019.4 |
| 20260505164616 | 0 | 23 | 0.0 | 4.8 | 0.03 | 0.05 | 0.03 | 89 | 1019.3 |
| 20260505163102 | 1 | 36 | 0.0 | 4.8 | 0.03 | 0.05 | 0.03 | 89 | 1019.1 |
| 20260505161600 | 1 | 326 | 0.0 | 3.2 | 0.03 | 0.05 | 0.03 | 90 | 1019.1 |
| 20260505153044 | 1 | 57 | 0.0 | 4.8 | 0.00 | 0.03 | 0.00 | 88 | 1018.9 |
| 20260505151543 | 1 | 126 | 0.0 | 3.2 | 0.00 | 0.03 | 0.00 | 88 | 1018.9 |
| 20260505124524 | 3 | 119 | 0.0 | 11.3 | 0.00 | 0.03 | 0.00 | 82 | 1016.8 |
| 20260505123021 | 4 | 90 | 1.6 | 8.0 | 0.00 | 0.03 | 0.00 | 81 | 1016.5 |
| 20260505121520 | 4 | 128 | 1.6 | 9.7 | 0.00 | 0.03 | 0.00 | 79 | 1016.0 |
| 20260505120019 | 4 | 117 | 0.0 | 3.2 | 0.00 | 0.03 | 0.00 | 78 | 1015.8 |
| 20260505114517 | 4 | 108 | 1.6 | 8.0 | 0.00 | 0.03 | 0.00 | 78 | 1015.8 |
| 20260505113016 | 5 | 103 | 0.0 | 3.2 | 0.00 | 0.03 | 0.00 | 79 | 1015.6 |
| 20260505111522 | 5 | 109 | 0.0 | 3.2 | 0.00 | 0.03 | 0.00 | 80 | 1015.4 |
| 20260505101509 | 5 | 141 | 0.0 | 3.2 | 0.00 | 0.03 | 0.00 | 87 | 1015.1 |
| 20260505100014 | 4 | 138 | 0.0 | 4.8 | 0.00 | 0.03 | 0.00 | 86 | 1014.9 |
| 20260505094507 | 5 | 146 | 0.0 | 3.2 | 0.00 | 0.03 | 0.00 | 86 | 1014.8 |
| 20260505093003 | 5 | 325 | 0.0 | 0.0 | 0.00 | 0.03 | 0.00 | 85 | 1014.9 |
| 20260505091500 | 5 | 324 | 0.0 | 0.0 | 0.00 | 0.03 | 0.00 | 84 | 1014.8 |
| 20260505090059 | 5 | 324 | 0.0 | 0.0 | 0.00 | 0.03 | 0.00 | 83 | 1014.9 |
| 20260505084558 | 5 | 325 | 0.0 | 1.6 | 0.00 | 0.03 | 0.00 | 82 | 1015.0 |
| 20260505083058 | 5 | 324 | 0.0 | 0.0 | 0.00 | 0.03 | 0.00 | 82 | 1015.4 |
| 20260505081610 | 5 | 324 | 0.0 | 1.6 | 0.00 | 0.03 | 0.00 | 83 | 1015.4 |
| 20260505080107 | 5 | 325 | 0.0 | 1.6 | 0.00 | 0.03 | 0.00 | 83 | 1015.3 |
| 20260505074555 | 5 | 324 | 0.0 | 1.6 | 0.00 | 0.03 | 0.00 | 83 | 1015.6 |
| 20260505073055 | 5 | 324 | 0.0 | 0.0 | 0.00 | 0.03 | 0.00 | 82 | 1015.7 |
| 20260505071556 | 5 | 324 | 0.0 | 1.6 | 0.00 | 0.03 | 0.00 | 83 | 1015.4 |
| 20260505070056 | 6 | 324 | 0.0 | 3.2 | 0.00 | 0.03 | 0.00 | 82 | 1015.6 |
| 20260505064549 | 6 | 324 | 0.0 | 4.8 | 0.00 | 0.03 | 0.03 | 83 | 1015.6 |
| 20260505063049 | 6 | 313 | 0.0 | 6.4 | 0.00 | 0.03 | 0.03 | 83 | 1015.7 |
| 20260505061546 | 6 | 313 | 0.0 | 1.6 | 0.00 | 0.03 | 0.03 | 83 | 1015.6 |
| 20260505060044 | 6 | 313 | 0.0 | 1.6 | 0.00 | 0.03 | 0.03 | 80 | 1015.6 |
| 20260505054551 | 7 | 313 | 0.0 | 4.8 | 0.00 | 0.03 | 0.03 | 75 | 1015.7 |
| 20260505053053 | 7 | 298 | 0.0 | 8.0 | 0.00 | 0.03 | 0.03 | 73 | 1015.6 |
| 20260505051542 | 7 | 281 | 0.0 | 4.8 | 0.00 | 0.03 | 0.03 | 71 | 1015.5 |
| 20260505041533 | 7 | 283 | 0.0 | 6.4 | 0.00 | 0.03 | 0.03 | 71 | 1014.7 |
| 20260505040037 | 7 | 20 | 0.0 | 3.2 | 0.00 | 0.03 | 0.03 | 68 | 1014.6 |
| 20260505034529 | 7 | 310 | 3.2 | 11.3 | 0.00 | 0.03 | 0.03 | 66 | 1014.3 |
| 20260505033031 | 7 | 300 | 1.6 | 12.9 | 0.00 | 0.03 | 0.03 | 67 | 1014.2 |
| 20260505031525 | 8 | 319 | 3.2 | 12.9 | 0.00 | 0.03 | 0.03 | 65 | 1014.2 |
| 20260505030026 | 8 | 34 | 3.2 | 12.9 | 0.00 | 0.03 | 0.03 | 64 | 1013.6 |
| 20260505024521 | 8 | 351 | 1.6 | 6.4 | 0.00 | 0.03 | 0.03 | 63 | 1014.0 |
| 20260505023021 | 8 | 330 | 0.0 | 6.4 | 0.00 | 0.03 | 0.03 | 64 | 1013.7 |
| 20260505021520 | 8 | 24 | 0.0 | 4.8 | 0.03 | 0.03 | 0.03 | 65 | 1014.2 |
| 20260505020017 | 8 | 301 | 3.2 | 6.4 | 0.03 | 0.03 | 0.03 | 62 | 1014.2 |
| 20260505014517 | 8 | 325 | 1.6 | 9.7 | 0.03 | 0.03 | 0.03 | 62 | 1013.5 |
| 20260505013015 | 9 | 330 | 8.0 | 20.9 | 0.03 | 0.03 | 0.03 | 60 | 1013.5 |
| 20260505011512 | 10 | 327 | 3.2 | 17.7 | 0.00 | 0.00 | 0.00 | 54 | 1013.4 |
| 20260505010008 | 11 | 311 | 8.0 | 12.9 | 0.00 | 0.00 | 0.00 | 50 | 1012.8 |
| 20260505004508 | 11 | 271 | 3.2 | 14.5 | 0.00 | 0.00 | 0.00 | 54 | 1012.8 |
| 20260505003005 | 12 | 105 | 8.0 | 25.7 | 0.00 | 0.00 | 0.00 | 43 | 1012.3 |
| 20260505001503 | 13 | 23 | 1.6 | 4.8 | 0.00 | 0.00 | 0.00 | 37 | 1011.5 |
| 20260505000003 | 14 | 28 | 3.2 | 9.7 | 0.00 | 0.00 | 0.00 | 37 | 1011.4 |